Location: Pinon Hills
(34.4429°N, 117.6403°W)
Time: 00:24:53
(UTC-08:00)

Amateur Radio Satellites - All Passes

Search period start: 22 January 2017 23:54
Search period end: 23 January 2017 23:54
Location: Pinon Hills, 34.4429°N, 117.6403°W

Satellite Date Start Highest point End Downlink Frequencies (MHz)
Time Altitude Azimuth
JAS-2 22 Jan 23:54:58 00:01:36 38° 291° (WNW) 00:08:37 435.910
BUGSAT 1 22 Jan 23:55:39 23:59:28 40° 99° (E) 00:03:19 437.445
VELOX 1 22 Jan 23:56:33 00:00:30 31° 262° (W) 00:04:29 145.980
ESTCUBE 1 23 Jan 00:01:01 00:02:00 11° 268° (W) 00:03:00 437.505/2401.250
Cosmos 2504 23 Jan 00:03:25 00:06:44 13° 67° (ENE) 00:10:00 435.465 / 435.565
SPROUT 23 Jan 00:03:55 00:07:47 34° 262° (W) 00:11:39 437.525
Oscar 19 23 Jan 00:11:48 00:14:56 16° 93° (E) 00:18:01 437.125/150
UKube-1 23 Jan 00:12:01 00:16:17 63° 259° (WSW) 00:20:35 .
RS-15 23 Jan 00:18:26 00:29:33 44° 311° (NW) 00:41:10 29.354- 29.394
DX 1 23 Jan 00:18:59 00:23:01 37° 261° (W) 00:27:04 434.975-435.025
BEESAT 2 23 Jan 00:32:03 00:35:43 32° 56° (NE) 00:39:21 435.950
YUBILEINY 23 Jan 00:33:09 00:41:47 56° 80° (E) 00:50:16 435.215
QB50P1 23 Jan 00:34:48 00:37:41 18° 291° (WNW) 00:40:34 145.935-145.965
PHONESAT 2.4 23 Jan 00:38:47 00:40:54 37° 342° (NNW) 00:43:00 2401.200-2431.200
POLYITAN 1 23 Jan 00:40:11 00:42:45 16° 292° (WNW) 00:45:19 437.675
QB50P2 23 Jan 00:41:49 00:44:05 14° 293° (WNW) 00:46:20 145.880/145.840
Gurwin Techsat 1B 23 Jan 00:48:17 00:52:08 20° 95° (E) 00:55:58 435.225
PCSat 23 Jan 01:11:20 01:14:42 16° 310° (NW) 01:18:05 145.827
ITUPSAT 1 23 Jan 01:16:03 01:20:18 33° 71° (ENE) 01:24:34 437.325
Cosmos 2491 23 Jan 01:18:11 01:26:44 65° 92° (E) 01:35:18 435.465 / 435.565
BEESAT 3 23 Jan 01:18:43 01:22:05 26° 248° (WSW) 01:25:26 437.485
AIST 1 23 Jan 01:20:32 01:24:04 26° 270° (W) 01:27:35
TISAT 1 23 Jan 01:21:39 01:25:22 32° 262° (W) 01:29:08 437.305
BUGSAT 1 23 Jan 01:32:36 01:34:27 13° 293° (WNW) 01:36:19 437.445
BEESAT 23 Jan 01:48:07 01:52:51 79° 76° (ENE) 01:57:37 436.000
Oscar 19 23 Jan 01:49:29 01:54:27 49° 287° (WNW) 01:59:23 437.125/150
SWISSCUBE 23 Jan 01:50:04 01:54:49 88° 255° (WSW) 01:59:36 437.505
AO-7 23 Jan 01:52:24 01:56:32 14° 92° (E) 02:00:39 29.400- 29.500
Cosmos 2504 23 Jan 01:53:43 02:01:01 83° 265° (W) 02:08:10 435.465 / 435.565
CUSAT 1 23 Jan 02:04:33 02:09:22 45° 90° (E) 02:15:34 437.405
BEESAT 2 23 Jan 02:10:33 02:13:13 17° 250° (WSW) 02:15:53 435.950
PHONESAT 2.4 23 Jan 02:13:31 02:15:04 16° 358° (N) 02:16:37 2401.200-2431.200
Gurwin Techsat 1B 23 Jan 02:27:13 02:32:11 42° 289° (WNW) 02:37:09 435.225
YUBILEINY 23 Jan 02:30:59 02:37:56 27° 277° (W) 02:44:51 435.215
ISS 23 Jan 02:35:45 02:37:25 13° 28° (NNE) 02:39:05 145.825
ITAMSAT 1 23 Jan 02:38:42 02:43:42 45° 100° (E) 02:48:41 435.822/435.867
RS-15 23 Jan 02:40:09 02:46:45 16° 342° (NNW) 02:53:26 29.354- 29.394
M-CUBED/EXP-1 PRIME 23 Jan 02:51:50 02:56:08 58° 72° (ENE) 03:00:09 437.505
ITUPSAT 1 23 Jan 02:54:37 02:58:08 20° 265° (W) 03:01:41 437.325
MOZHAYETS 4 23 Jan 02:54:47 02:59:19 69° 259° (W) 03:03:55
AIST 2 23 Jan 02:56:17 02:59:42 23° 53° (NE) 03:03:05 435.215
KKS-1 23 Jan 03:12:49 03:17:09 55° 74° (ENE) 03:21:30 437.445
Cosmos 2491 23 Jan 03:17:35 03:24:08 23° 290° (WNW) 03:30:44 435.465 / 435.565
DANDE 23 Jan 03:25:23 03:29:08 69° 94° (E) 03:34:12 436.750
AUBIESAT-1 23 Jan 03:25:55 03:30:12 67° 253° (WSW) 03:34:13 437.475
AO-7 23 Jan 03:41:45 03:50:10 89° 107° (ESE) 03:58:29 29.400- 29.500
PHONESAT 2.4 23 Jan 03:47:22 03:49:18 25° 14° (NNE) 03:51:14 2401.200-2431.200
CUSAT 1 23 Jan 03:47:36 03:51:43 22° 294° (WNW) 03:56:38 437.405
CUBESAT XI-V 23 Jan 03:48:29 03:53:07 63° 75° (ENE) 03:57:47 437.345
STARS 23 Jan 03:57:28 04:01:51 80° 76° (ENE) 04:06:13 437.465
ISS 23 Jan 04:10:59 04:14:13 72° 226° (SW) 04:17:26 145.825
HORYU 2 23 Jan 04:18:25 04:20:41 14° 94° (E) 04:22:58 437.375
ITAMSAT 1 23 Jan 04:19:13 04:22:46 19° 294° (WNW) 04:26:20 435.822/435.867
O/OREOS (USA 219) 23 Jan 04:21:10 04:24:07 17° 100° (E) 04:27:04 437.305
AIST 2 23 Jan 04:34:29 04:38:08 28° 248° (WSW) 04:41:44 435.215
GOMX 1 23 Jan 04:37:45 04:40:50 19° 94° (E) 04:43:50 467.674
BRITE-PL 23 Jan 04:48:40 04:53:23 83° 103° (ESE) 04:57:44 437.365/2234.400
KKS-1 23 Jan 04:53:05 04:53:59 11° 268° (W) 04:54:54 437.445
NOAA 15 23 Jan 04:54:50 04:57:27 14° 92° (E) 05:00:04 137.62
Cubesat XI-IV 23 Jan 04:56:52 04:59:32 14° 93° (E) 05:02:11 437.490
RS-15 23 Jan 04:59:51 05:07:00 17° 21° (NNE) 05:14:03 29.354- 29.394
DOVE 4 23 Jan 05:02:07 05:03:48 12° 93° (E) 05:05:29 437.250
LilacSat-2 23 Jan 05:02:48 05:04:56 14° 94° (E) 05:07:04 437.200
STRAND 1 23 Jan 05:12:49 05:15:28 14° 64° (ENE) 05:18:08 437.568
SO-50 23 Jan 05:19:37 05:21:38 13° 108° (ESE) 05:23:38 436.795
PHONESAT 2.4 23 Jan 05:21:04 05:23:10 37° 208° (SSW) 05:25:15 2401.200-2431.200
GONETS M04 23 Jan 05:21:35 05:28:44 27° 72° (ENE) 05:35:49
NOAA 18 23 Jan 05:26:16 05:29:00 14° 93° (E) 05:31:45 137.9125
CUBESAT XI-V 23 Jan 05:30:05 05:30:50 10° 269° (W) 05:31:35 437.345
AO-7 23 Jan 05:36:36 05:41:49 18° 305° (NW) 05:47:00 29.400- 29.500
CUTE-I 23 Jan 05:50:27 05:55:39 51° 100° (E) 06:00:50 437.470
HORYU 2 23 Jan 05:53:09 05:57:24 44° 287° (WNW) 06:01:38 437.375
HO-68 23 Jan 05:55:26 05:57:06 11° 90° (E) 05:58:45 435.675
Cosmos 2499 23 Jan 05:57:40 06:04:33 52° 80° (E) 06:11:27 435.465 / 435.565
O/OREOS (USA 219) 23 Jan 05:59:09 06:03:12 34° 295° (WNW) 06:07:16 437.305
CINEMA 3 23 Jan 06:07:09 06:09:45 16° 95° (E) 06:12:23 145.822/145.860
GOMX 1 23 Jan 06:15:20 06:18:56 26° 289° (WNW) 06:22:25 467.674
NOAA 15 23 Jan 06:32:20 06:37:34 60° 287° (WNW) 06:42:44 137.62
CUTE 1.7 + AOD 2 23 Jan 06:33:11 06:35:58 17° 94° (E) 06:38:43 437.475
Cubesat XI-IV 23 Jan 06:34:40 06:39:55 60° 286° (WNW) 06:45:11 437.490
LilacSat-2 23 Jan 06:35:49 06:39:15 31° 287° (WNW) 06:42:41 437.200
DOVE 4 23 Jan 06:37:48 06:41:41 39° 286° (WNW) 06:45:34 437.250
STRAND 1 23 Jan 06:49:07 06:54:06 58° 259° (W) 06:59:09 437.568
SO-50 23 Jan 06:56:55 07:01:35 59° 301° (WNW) 07:06:13 436.795
CANX-2 23 Jan 07:01:59 07:06:06 44° 99° (E) 07:10:12 2200.000
NOAA 18 23 Jan 07:04:38 07:10:00 62° 287° (WNW) 07:15:22 137.9125
COMPASS 1 23 Jan 07:06:36 07:09:21 17° 94° (E) 07:12:05 437.405
SEEDS 23 Jan 07:06:40 07:10:18 27° 96° (E) 07:13:54 437.485
RS-15 23 Jan 07:11:59 07:23:48 48° 51° (NE) 07:35:07 29.354- 29.394
AAUSAT CUBESAT 2 23 Jan 07:14:45 07:17:17 16° 93° (E) 07:19:48 437.432
GONETS M04 23 Jan 07:17:21 07:25:58 59° 269° (W) 07:34:33
CUTE-I 23 Jan 07:31:47 07:35:14 18° 295° (WNW) 07:38:42 437.470
PRISM 23 Jan 07:38:01 07:41:04 20° 69° (ENE) 07:44:07 437.425
HO-68 23 Jan 07:38:26 07:45:39 83° 104° (ESE) 07:52:48 435.675
CINEMA 3 23 Jan 07:43:04 07:46:55 35° 287° (WNW) 07:50:54 145.822/145.860
Oscar 11 23 Jan 07:44:46 07:46:49 13° 93° (E) 07:48:52 145.826/435.025
Cosmos 2499 23 Jan 07:52:04 07:57:05 21° 276° (W) 08:02:08 435.465 / 435.565
CUTE 1.7 + AOD 2 23 Jan 08:07:59 08:11:50 33° 288° (WNW) 08:15:40 437.475
CUBEBUG 2 23 Jan 08:15:36 08:19:59 71° 283° (WNW) 08:24:31 437.445
PCSat 23 Jan 08:17:28 08:21:57 25° 55° (NE) 08:26:24 145.827
FUNcube-1 23 Jan 08:23:31 08:27:46 44° 99° (E) 08:32:05 145.935
UWE-3 23 Jan 08:37:08 08:41:32 65° 284° (WNW) 08:46:02 435.000/436.395/437.385
CANX-2 23 Jan 08:39:29 08:41:31 13° 293° (WNW) 08:43:33 2200.000
COMPASS 1 23 Jan 08:41:12 08:44:55 31° 288° (WNW) 08:48:36 437.405
SEEDS 23 Jan 08:42:39 08:45:47 20° 290° (WNW) 08:48:54 437.485
ZACube-1 23 Jan 08:48:24 08:52:52 84° 281° (WNW) 08:57:24 437.345
AAUSAT CUBESAT 2 23 Jan 08:49:03 08:52:49 33° 287° (WNW) 08:56:31 437.432
UNISAT 6 23 Jan 09:00:03 09:04:11 52° 75° (ENE) 09:08:19 437.425
TIGRISAT 23 Jan 09:12:15 09:16:28 68° 76° (ENE) 09:20:41 435.000
PRISM 23 Jan 09:12:37 09:16:09 27° 263° (W) 09:19:42 437.425
Oscar 11 23 Jan 09:18:59 09:23:07 43° 286° (WNW) 09:27:14 145.826/435.025
RS-15 23 Jan 09:24:47 09:36:14 49° 252° (WSW) 09:47:13 29.354- 29.394
HO-68 23 Jan 09:28:17 09:32:27 17° 301° (WNW) 09:36:37 435.675
ANTELSAT 23 Jan 09:28:21 09:32:35 70° 259° (W) 09:36:50 437.575/2403.000
DELFI C3 23 Jan 09:36:39 09:40:38 83° 283° (WNW) 09:44:34 145.870
QB50P1 23 Jan 09:48:33 09:50:57 15° 68° (ENE) 09:53:21 145.935-145.965
POLYITAN 1 23 Jan 09:53:24 09:56:09 17° 69° (ENE) 09:58:55 437.675
QB50P2 23 Jan 09:54:30 09:57:30 19° 69° (ENE) 10:00:30 145.880/145.840
PCSat 23 Jan 10:00:25 10:05:24 39° 251° (WSW) 10:10:23 145.827
FUNcube-1 23 Jan 10:01:12 10:03:37 15° 292° (WNW) 10:06:03 145.935
JAS-2 23 Jan 10:03:33 10:08:50 75° 75° (ENE) 10:14:41 435.910
HUMSAT D 23 Jan 10:05:56 10:10:13 73° 284° (WNW) 10:14:31 437.325/437.525
POPSAT HIP 1 23 Jan 10:14:24 10:18:03 29° 72° (ENE) 10:21:41 437.405
ESTCUBE 1 23 Jan 10:17:47 10:20:34 16° 94° (E) 10:23:19 437.505/2401.250
DUCHIFAT 1 23 Jan 10:20:56 10:24:34 30° 72° (ENE) 10:28:12 145.980
NANOSAT C BR1 23 Jan 10:27:57 10:31:52 40° 73° (ENE) 10:35:48 145.865
BY70-1 23 Jan 10:29:28 10:32:22 36° 98° (E) 10:35:04 436.1900
BUGSAT 1 23 Jan 10:42:46 10:45:30 18° 69° (ENE) 10:48:14 437.445
CUBEBUG 1 23 Jan 10:51:44 10:55:02 21° 96° (E) 10:58:19 437.445
AISAT 23 Jan 11:16:51 11:20:31 26° 97° (E) 11:24:11 437.250
QB50P1 23 Jan 11:22:30 11:26:22 36° 262° (W) 11:30:15 145.935-145.965
Oscar 19 23 Jan 11:25:20 11:28:42 18° 66° (ENE) 11:32:05 437.125/150
POLYITAN 1 23 Jan 11:27:57 11:31:40 31° 262° (W) 11:35:25 437.675
QB50P2 23 Jan 11:29:27 11:33:04 28° 263° (W) 11:36:42 145.880/145.840
Cosmos 2491 23 Jan 11:33:46 11:40:52 27° 72° (ENE) 11:47:57 435.465 / 435.565
JUGNU 23 Jan 11:48:35 11:51:30 14° 168° (SSE) 11:54:25 437.505
VELOX 1 23 Jan 11:49:29 11:53:50 62° 101° (E) 11:58:09 145.980
POPSAT HIP 1 23 Jan 11:50:58 11:53:48 18° 265° (W) 11:56:39 437.405
SPROUT 23 Jan 11:52:42 11:56:50 49° 100° (E) 12:00:57 437.525
ESTCUBE 1 23 Jan 11:53:16 11:57:28 38° 287° (WNW) 12:01:39 437.505/2401.250
JAS-2 23 Jan 11:54:20 11:54:43 10° 272° (W) 11:55:07 435.910
DUCHIFAT 1 23 Jan 11:57:29 12:00:14 17° 265° (W) 12:03:01 145.980
50 SAT 23 Jan 12:02:41 12:06:14 72° 101° (ESE) 12:09:44 437.505
UKube-1 23 Jan 12:02:56 12:06:35 26° 97° (E) 12:10:13 .
NANOSAT C BR1 23 Jan 12:05:51 12:07:44 13° 267° (W) 12:09:36 145.865
Gurwin Techsat 1B 23 Jan 12:05:57 12:10:04 23° 67° (ENE) 12:14:12 435.225
AIST 1 23 Jan 12:09:58 12:12:13 14° 86° (E) 12:14:27
DX 1 23 Jan 12:10:18 12:14:29 47° 100° (E) 12:18:38 434.975-435.025
BUGSAT 1 23 Jan 12:17:08 12:20:39 28° 263° (W) 12:24:08 437.445
CUBEBUG 1 23 Jan 12:27:38 12:31:15 26° 289° (WNW) 12:34:49 437.445
Cosmos 2504 23 Jan 12:37:57 12:42:13 15° 81° (E) 12:46:22 435.465 / 435.565
AO-85 23 Jan 12:39:54 12:44:44 78° 299° (WNW) 12:49:13 145.980
CUSAT 1 23 Jan 12:41:29 12:48:30 34° 72° (ENE) 12:54:45 437.405
AO-7 23 Jan 12:48:04 12:53:04 18° 54° (NE) 12:58:03 29.400- 29.500
AISAT 23 Jan 12:53:25 12:56:49 22° 291° (WNW) 13:00:12 437.250
Oscar 19 23 Jan 13:02:35 13:07:35 49° 260° (W) 13:12:38 437.125/150
TISAT 1 23 Jan 13:08:23 13:12:25 46° 100° (E) 13:16:26 437.305
ITUPSAT 1 23 Jan 13:22:18 13:23:44 11° 92° (E) 13:25:10 437.325
SRMSAT 23 Jan 13:26:38 13:27:24 10° 164° (SSE) 13:28:10 437.500
YUBILEINY 23 Jan 13:28:53 13:37:37 72° 93° (E) 13:46:25 435.215
VELOX 1 23 Jan 13:29:10 13:29:43 10° 295° (WNW) 13:30:15 145.980
Cosmos 2491 23 Jan 13:29:33 13:38:06 58° 269° (W) 13:46:40 435.465 / 435.565
SPROUT 23 Jan 13:30:41 13:32:17 12° 294° (WNW) 13:33:52 437.525
JUGNU 23 Jan 13:35:47 13:39:47 19° 178° (S) 13:43:47 437.505
UKube-1 23 Jan 13:39:10 13:42:26 21° 291° (WNW) 13:45:41 .
Gurwin Techsat 1B 23 Jan 13:44:53 13:49:45 37° 262° (W) 13:54:39 435.225
AIST 1 23 Jan 13:45:21 13:49:24 37° 280° (W) 13:53:28
DX 1 23 Jan 13:48:16 13:50:13 13° 294° (WNW) 13:52:10 434.975-435.025
BEESAT 23 Jan 13:52:16 13:56:17 26° 97° (E) 14:00:17 436.000
ITAMSAT 1 23 Jan 13:53:07 13:58:04 49° 73° (ENE) 14:03:02 435.822/435.867
SWISSCUBE 23 Jan 13:54:06 13:58:21 31° 98° (E) 14:02:35 437.505
DANDE 23 Jan 14:04:33 14:12:34 56° 78° (ENE) 14:20:34 436.750
BEESAT 2 23 Jan 14:22:02 14:23:47 13° 108° (ESE) 14:25:34 435.950
CUSAT 1 23 Jan 14:23:11 14:30:30 44° 271° (W) 14:36:54 437.405
Cosmos 2504 23 Jan 14:25:50 14:34:34 89° 276° (W) 14:42:47 435.465 / 435.565
O/OREOS (USA 219) 23 Jan 14:33:45 14:37:05 20° 62° (ENE) 14:40:25 437.305
AO-7 23 Jan 14:36:16 14:44:38 88° 72° (ENE) 14:53:04 29.400- 29.500
TISAT 1 23 Jan 14:45:58 14:47:36 12° 294° (WNW) 14:49:14 437.305
MOZHAYETS 4 23 Jan 14:53:27 14:57:44 36° 98° (E) 15:01:59
ITUPSAT 1 23 Jan 14:57:08 15:01:53 61° 286° (WNW) 15:06:36 437.325
BEESAT 3 23 Jan 15:04:34 15:08:25 67° 301° (WNW) 15:12:19 437.485
KKS-1 23 Jan 15:08:51 15:11:08 14° 94° (E) 15:13:24 437.445
SRMSAT 23 Jan 15:11:57 15:15:50 18° 173° (S) 15:19:43 437.500
JUGNU 23 Jan 15:24:31 15:28:05 16° 188° (S) 15:31:40 437.505
YUBILEINY 23 Jan 15:28:52 15:35:09 21° 291° (WNW) 15:41:30 435.215
BEESAT 23 Jan 15:29:57 15:33:56 27° 291° (WNW) 15:37:55 436.000
SO-50 23 Jan 15:31:45 15:36:03 44° 57° (ENE) 15:40:18 436.795
SWISSCUBE 23 Jan 15:32:11 15:35:56 23° 292° (WNW) 15:39:40 437.505
ITAMSAT 1 23 Jan 15:34:35 15:37:44 16° 266° (W) 15:40:55 435.822/435.867
GOMX 1 23 Jan 15:41:45 15:45:31 20° 69° (ENE) 15:49:09 467.674
DANDE 23 Jan 15:48:00 15:54:51 30° 273° (W) 16:01:40 436.750
CUBESAT XI-V 23 Jan 15:49:29 15:52:57 20° 94° (E) 15:56:23 437.345
STARS 23 Jan 15:51:16 15:54:20 18° 95° (E) 15:57:23 437.465
BRITE-PL 23 Jan 15:54:04 15:59:42 67° 76° (ENE) 16:05:16 437.365/2234.400
BEESAT 2 23 Jan 15:57:26 16:01:09 40° 303° (WNW) 16:04:56 435.950
DOVE 4 23 Jan 16:04:55 16:06:20 11° 66° (ENE) 16:07:44 437.250
M-CUBED/EXP-1 PRIME 23 Jan 16:08:33 16:11:50 72° 107° (ESE) 16:15:04 437.505
NOAA 15 23 Jan 16:11:21 16:14:39 17° 65° (ENE) 16:17:56 137.62
O/OREOS (USA 219) 23 Jan 16:12:30 16:16:30 32° 256° (WSW) 16:20:31 437.305
Cubesat XI-IV 23 Jan 16:15:21 16:18:44 17° 65° (ENE) 16:22:06 437.490
Cosmos 2504 23 Jan 16:24:21 16:28:50 15° 292° (WNW) 16:33:11 435.465 / 435.565
MOZHAYETS 4 23 Jan 16:31:21 16:34:36 19° 292° (WNW) 16:37:49
AO-7 23 Jan 16:33:37 16:38:11 16° 267° (W) 16:42:48 29.400- 29.500
AUBIESAT-1 23 Jan 16:42:10 16:45:19 43° 290° (WNW) 16:48:27 437.475
KKS-1 23 Jan 16:43:40 16:47:50 42° 287° (WNW) 16:52:00 437.445
HORYU 2 23 Jan 16:47:05 16:51:28 76° 257° (WSW) 16:55:54 437.375
NOAA 18 23 Jan 16:48:36 16:52:34 21° 65° (ENE) 16:56:31 137.9125
SRMSAT 23 Jan 17:00:12 17:04:19 19° 183° (S) 17:08:27 437.500
CUTE-I 23 Jan 17:08:41 17:13:52 59° 74° (ENE) 17:19:05 437.470
LilacSat-2 23 Jan 17:13:29 17:17:14 71° 76° (ENE) 17:21:01 437.200
SO-50 23 Jan 17:13:31 17:16:06 15° 251° (WSW) 17:18:40 436.795
GOMX 1 23 Jan 17:18:06 17:23:15 45° 261° (W) 17:28:11 467.674
CUBESAT XI-V 23 Jan 17:26:11 17:30:19 32° 289° (WNW) 17:34:26 437.345
STARS 23 Jan 17:26:49 17:30:41 31° 289° (WNW) 17:34:32 437.465
BRITE-PL 23 Jan 17:35:32 17:38:28 14° 269° (W) 17:41:24 437.365/2234.400
DOVE 4 23 Jan 17:38:33 17:43:31 67° 259° (WSW) 17:48:14 437.250
NOAA 15 23 Jan 17:48:47 17:53:55 53° 259° (W) 17:59:07 137.62
CANX-2 23 Jan 17:51:48 17:54:57 21° 70° (ENE) 17:58:07 2200.000
Cubesat XI-IV 23 Jan 17:53:11 17:58:20 51° 260° (W) 18:03:31 437.490
SEEDS 23 Jan 17:56:28 17:58:18 13° 67° (ENE) 18:00:08 437.485
HO-68 23 Jan 18:03:02 18:09:43 43° 68° (ENE) 18:16:24 435.675
GONETS M04 23 Jan 18:18:10 18:25:40 34° 86° (E) 18:33:12
NOAA 18 23 Jan 18:27:36 18:32:51 45° 260° (W) 18:38:06 137.9125
AIST 2 23 Jan 18:27:46 18:31:47 56° 301° (WNW) 18:35:53 435.215
Cosmos 2499 23 Jan 18:28:52 18:36:55 51° 91° (E) 18:44:26 435.465 / 435.565
CINEMA 3 23 Jan 18:40:40 18:45:02 61° 260° (W) 18:49:15 145.822/145.860
SRMSAT 23 Jan 18:49:59 18:52:47 13° 193° (SSW) 18:55:35 437.500
CUTE-I 23 Jan 18:51:34 18:54:14 14° 267° (W) 18:56:55 437.470
CUTE 1.7 + AOD 2 23 Jan 18:56:11 19:00:25 77° 259° (W) 19:04:42 437.475
STRAND 1 23 Jan 19:03:02 19:08:09 64° 102° (ESE) 19:13:15 437.568
CUBEBUG 2 23 Jan 19:10:11 19:14:15 58° 75° (ENE) 19:18:19 437.445
ISS 23 Jan 19:12:49 19:15:12 19° 129° (SE) 19:17:33 145.825
FUNcube-1 23 Jan 19:16:22 19:19:27 21° 70° (ENE) 19:22:33 145.935
CANX-2 23 Jan 19:27:00 19:30:36 27° 264° (W) 19:34:15 2200.000
COMPASS 1 23 Jan 19:27:21 19:31:31 78° 258° (WSW) 19:35:45 437.405
SEEDS 23 Jan 19:29:29 19:33:32 45° 261° (W) 19:37:37 437.485
UWE-3 23 Jan 19:30:32 19:34:36 61° 76° (ENE) 19:38:42 435.000/436.395/437.385
AAUSAT CUBESAT 2 23 Jan 19:34:42 19:38:53 85° 261° (W) 19:43:05 437.432
ZACube-1 23 Jan 19:40:44 19:44:40 45° 74° (ENE) 19:48:39 437.345
HO-68 23 Jan 19:51:14 19:57:27 31° 263° (W) 20:03:42 435.675
Oscar 11 23 Jan 20:09:30 20:13:49 88° 82° (E) 20:18:10 145.826/435.025
GONETS M04 23 Jan 20:13:57 20:22:09 45° 283° (WNW) 20:30:26
DELFI C3 23 Jan 20:18:37 20:22:11 32° 73° (ENE) 20:25:46 145.870
Cosmos 2499 23 Jan 20:23:17 20:30:11 28° 285° (WNW) 20:36:45 435.465 / 435.565
STRAND 1 23 Jan 20:44:19 20:46:44 13° 296° (WNW) 20:49:08 437.568
ISS 23 Jan 20:48:32 20:51:30 31° 323° (NW) 20:54:28 145.825
FUNcube-1 23 Jan 20:52:08 20:55:31 25° 264° (W) 20:58:57 145.935
HUMSAT D 23 Jan 20:53:23 20:57:17 45° 74° (ENE) 21:01:15 437.325/437.525
UNISAT 6 23 Jan 20:56:09 20:58:48 15° 94° (E) 21:01:28 437.425
PRISM 23 Jan 20:56:49 21:00:48 50° 100° (E) 21:04:46 437.425
TIGRISAT 23 Jan 21:07:45 21:10:59 19° 95° (E) 21:14:15 435.000
AO-85 23 Jan 21:15:14 21:18:36 27° 55° (NE) 21:21:59 145.980
ESTCUBE 1 23 Jan 21:16:24 21:16:50 10° 64° (ENE) 21:17:16 437.505/2401.250
JAS-2 23 Jan 21:17:14 21:21:26 15° 91° (E) 21:25:43 435.910
ZACube-1 23 Jan 21:20:04 21:21:11 11° 268° (W) 21:22:18 437.345
ANTELSAT 23 Jan 21:23:21 21:27:21 31° 97° (E) 21:31:25 437.575/2403.000
RS-15 23 Jan 21:30:34 21:41:06 41° 106° (ESE) 21:52:03 29.354- 29.394
CUBEBUG 1 23 Jan 21:45:42 21:47:32 12° 66° (ENE) 21:49:21 437.445
DELFI C3 23 Jan 21:54:41 21:57:01 15° 266° (W) 21:59:22 145.870
BY70-1 23 Jan 22:09:13 22:12:12 88° 246° (WSW) 22:15:27 436.1900
AISAT 23 Jan 22:11:33 22:14:16 16° 67° (ENE) 22:16:59 437.250
UNISAT 6 23 Jan 22:31:23 22:35:36 41° 287° (WNW) 22:39:55 437.425
HUMSAT D 23 Jan 22:31:55 22:33:06 11° 268° (W) 22:34:18 437.325/437.525
PRISM 23 Jan 22:34:38 22:35:36 11° 295° (WNW) 22:36:34 437.425
50 SAT 23 Jan 22:34:49 22:37:05 16° 70° (ENE) 22:39:20 437.505
SPROUT 23 Jan 22:43:02 22:46:24 24° 70° (ENE) 22:49:48 437.525
VELOX 1 23 Jan 22:43:10 22:47:12 34° 72° (ENE) 22:51:13 145.980
TIGRISAT 23 Jan 22:43:40 22:47:39 33° 288° (WNW) 22:51:44 435.000
ESTCUBE 1 23 Jan 22:48:31 22:53:00 67° 258° (WSW) 22:57:32 437.505/2401.250
PHONESAT 2.4 23 Jan 22:54:35 22:56:35 31° 150° (SSE) 22:58:36 2401.200-2431.200
PCSat 23 Jan 22:54:57 23:00:04 45° 110° (ESE) 23:05:12 145.827
UKube-1 23 Jan 22:54:59 22:57:30 15° 67° (ENE) 23:00:01 .
AO-85 23 Jan 22:56:04 22:58:46 18° 249° (WSW) 23:01:30 145.980
JAS-2 23 Jan 22:59:26 23:06:57 88° 284° (WNW) 23:14:50 435.910
ANTELSAT 23 Jan 23:00:30 23:03:50 21° 291° (WNW) 23:07:14 437.575/2403.000
DX 1 23 Jan 23:02:33 23:06:11 26° 70° (ENE) 23:09:49 434.975-435.025
QB50P1 23 Jan 23:10:16 23:14:18 43° 99° (E) 23:18:20 145.935-145.965
POLYITAN 1 23 Jan 23:15:39 23:19:47 51° 100° (E) 23:23:55 437.675
QB50P2 23 Jan 23:17:01 23:21:12 58° 100° (E) 23:25:22 145.880/145.840
CUBEBUG 1 23 Jan 23:19:03 23:23:19 50° 260° (W) 23:27:37 437.445
BEESAT 3 23 Jan 23:25:11 23:28:21 22° 53° (NE) 23:31:29 437.485
POPSAT HIP 1 23 Jan 23:37:26 23:41:41 87° 284° (WNW) 23:45:55 437.405
DUCHIFAT 1 23 Jan 23:43:11 23:47:24 87° 284° (WNW) 23:51:37 145.980
AISAT 23 Jan 23:46:13 23:50:22 39° 261° (W) 23:54:31 437.250
